Location: Hawks Ness
(60.2333°N, 1.1667°W)
Time: 12:01:56
(UTC+00:00)

Cosmos 1980 Rocket - Pass Details

Date: 22 October 2019
Orbit: 827 x 851 km, 71.0° (Epoch: 21 November)

Event Time Altitude Azimuth Distance (km) Brightness Sun altitude
Exits shadow 01:20:33 30° 42° (NE) 1,488 3.9 -37.8°
Drops below altitude 10° 01:23:18 10° 41° (NE) 2,485 5.3 -37.7°
Sets 01:25:45 0° 41° (NE) 3,426 6.3 -37.5°
